Flag for U.S.A. Weather past 2 weeks in Bakersfield, California, U.S.A.

Now
71 °F

Sunny.


Feels Like: 75 °F
Forecast: 56 / 76 °F
Wind: 12 mph from Northwest

Location: Meadows Field

Current Time: Mar 31, 2015 at 12:00:02 PM

Latest Report: Mar 31, 2015 at 10:54 AM


Visibility: 10 mi

Pressure: 30.10 "Hg

Humidity: 23%

Dew point: 31 °F

Location of BakersfieldLocation

Historic Weather in Bakersfield — Graph

°F

Bakersfield temperature yesterday

Maximum temperature yesterday: 88 °F (at 2:54 PM)
Minimum temperature yesterday: 57 °F (at 6:54 AM)
Average temperature yesterday: 73 °F

Past Weeks' High & Low Weather Summary

 TemperatureHumidityPressure
High93 °F (Mar 27, 3:54 PM)77% (Mar 23, 6:54 AM)30.27 "Hg (Mar 23, 6:54 AM)
Low47 °F (Mar 24, 6:54 AM)11% (Mar 27, 3:54 PM)29.89 "Hg (Mar 30, 5:54 PM)
Average67 °F44%30.07 "Hg
* Reported Mar 16 10:54 AM — Mar 31 10:54 AM, Bakersfield, Weather by CustomWeather, © 2015

Note: Actual official high and low records may vary slightly from our data, if they occured in-between our weather recording intervals... More about our weather records

Advertising

Bakersfield weather history for previous 24 hours

 ConditionsComfort  
Time TempWeatherWind HumidityBarometerVisibility
10:54 AM
Tue, Mar 31
71 °FSunny.12 mph23%30.10 "Hg10 mi
9:54 AM68 °FSunny.7 mph30%30.09 "Hg10 mi
8:54 AM64 °FSunny.6 mph35%30.07 "Hg10 mi
7:54 AM60 °FSunny.No wind52%30.06 "Hg10 mi
6:54 AM57 °FClear.No wind58%30.03 "Hg10 mi
5:54 AM58 °FClear.3 mph54%30.01 "Hg10 mi
4:54 AM62 °FClear.6 mph44%29.99 "Hg10 mi
3:54 AM62 °FClear.No wind54%29.98 "Hg10 mi
2:54 AM64 °FClear.7 mph49%29.97 "Hg10 mi
1:54 AM64 °FClear.13 mph45%29.97 "Hg10 mi
12:54 AM63 °FClear.6 mph38%29.97 "Hg10 mi
11:54 PM
Mon, Mar 30
64 °FClear.5 mph35%29.97 "Hg10 mi
10:54 PM67 °FClear.5 mph31%29.95 "Hg10 mi
9:54 PM75 °FClear.5 mph24%29.93 "Hg10 mi
8:54 PM71 °FClear.6 mph28%29.93 "Hg10 mi
7:54 PM77 °FSunny.5 mph23%29.90 "Hg10 mi
6:54 PM84 °FSunny.5 mph16%29.89 "Hg10 mi
5:54 PM86 °FSunny.8 mph13%29.89 "Hg10 mi
4:54 PM88 °FSunny.6 mph13%29.90 "Hg10 mi
3:54 PM88 °FSunny.6 mph13%29.91 "Hg10 mi
2:54 PM88 °FSunny.10 mph14%29.93 "Hg10 mi
1:54 PM86 °FSunny.8 mph15%29.96 "Hg10 mi
12:54 PM83 °FSunny.6 mph19%29.99 "Hg10 mi
Weather by CustomWeather, © 2015

See weather overviewHow to use our weather pages